Regional Weather Roundup
Issued by NWS

Home | Current Version | Previous Version | Text Only | Print | Product List | Glossary Off
Versions: 1 2 3 4 5 6 7 8 9 10 11 12 13 14 15 16 17 18 19 20 21 22 23 24 25 26 27 28 29 30 31 32 33 34 35 36 37 38 39 40 41 42 43 44 45 46 47 48 49 50

000
ASUS43 KFSD 200402
RWRSD

WEATHER ROUNDUP FOR SOUTH DAKOTA
NATIONAL WEATHER SERVICE SIOUX FALLS SD
1100 PM CDT THU OCT 19 2017

NOTE: "FAIR" INDICATES FEW OR NO CLOUDS BELOW 12,000 FEET WITH NO
SIGNIFICANT WEATHER AND/OR OBSTRUCTIONS TO VISIBILITY.


SDZ001>005-009-010-012>017-200500-
NORTHWEST AND NORTH CENTRAL SOUTH DAKOTA

CITY           SKY/WX    TMP DP  RH WIND       PRES   REMARKS
BUFFALO          N/A     56  26  31 W3        29.59F
FAITH            N/A     58  33  39 SE17      29.67F
MOBRIDGE       CLEAR     56  44  64 SE10      29.66F
$$

SDZ012>016-024>037-041>051-057-063-072>074-200500-
SOUTHWEST AND SOUTH CENTRAL SOUTH DAKOTA

CITY           SKY/WX    TMP DP  RH WIND       PRES   REMARKS
RAPID CTY ARPT CLEAR     54  23  30 E3        29.71S
PIERRE         PTCLDY    63  45  51 SE9       29.70S
CUSTER         CLEAR     58  15  18 SW5       29.85F
ELLSWORTH AFB  CLEAR     61  22  22 S5        29.69F
PHILIP         CLEAR     67  46  47 S14       29.68F
PINE RIDGE     PTCLDY    69  43  38 S20G31    29.77F
SPEARFISH      FAIR      54  27  35 S6        29.72F
WINNER         FAIR      71  48  43 S23G33    29.77F
$$

SDZ004>011-016>023-039-040-200500-
NORTHEAST SOUTH DAKOTA

CITY           SKY/WX    TMP DP  RH WIND       PRES   REMARKS
ABERDEEN       CLEAR     58  48  69 S12       29.74F
WATERTOWN      FAIR      55  49  80 S12       29.82S
BROOKINGS      FAIR      59  49  69 S14       29.85F
SISSETON         N/A     65  49  56 S9        29.77S
$$

SDZ017-020-022-023-036>040-048>070-200500-
SOUTHEAST SOUTH DAKOTA

CITY           SKY/WX    TMP DP  RH WIND       PRES   REMARKS
SIOUX FALLS    FAIR      63  53  70 S12       29.87F
HURON          CLEAR     59  49  69 S12       29.78F
CHAMBERLAIN    CLEAR     65  49  57 SE8       29.77F
MITCHELL       CLEAR     63  49  60 S17       29.81F
YANKTON        FAIR      59  50  72 SE9       29.88S
$$

ABBREVIATIONS USED IN REMARKS
   TC - TEMPERATURE IN CELSIUS
  WCI - WIND CHILL INDEX
   HX - HEAT INDEX
  VSB - VISIBILITY





USA.gov is the U.S. government's official web portal to all federal, state and local government web resources and services.